| time (UTC) | temp F | wind direction | speed knots | gust knots | rain 1hr in | rain 24hr in | rain mn in | humidity % | barometer mb |
| 20260904143013 | 84 | 219 | 2.6 | 5.2 | 0.00 | 0.00 | 0.00 | 82 | 1014.7 |
| 20260904141505 | 83 | 251 | 1.7 | 5.2 | 0.00 | 0.00 | 0.00 | 84 | 1014.6 |
| 20260904140004 | 82 | 157 | 1.7 | 4.3 | 0.00 | 0.00 | 0.00 | 86 | 1014.5 |
| 20260904134609 | 80 | 121 | 0.9 | 4.3 | 0.00 | 0.00 | 0.00 | 89 | 1014.3 |
| 20260904133054 | 79 | 167 | 0.9 | 5.2 | 0.00 | 0.00 | 0.00 | 91 | 1014.2 |
| 20260904131551 | 78 | 95 | 0.9 | 3.5 | 0.00 | 0.00 | 0.00 | 92 | 1014.0 |
| 20260904130049 | 77 | 210 | 0.9 | 3.5 | 0.00 | 0.00 | 0.00 | 93 | 1014.0 |
| 20260904124548 | 76 | 255 | 0.0 | 2.6 | 0.00 | 0.28 | 0.00 | 93 | 1013.9 |
| 20260904123047 | 76 | 134 | 0.0 | 1.7 | 0.00 | 0.28 | 0.00 | 93 | 1013.9 |
| 20260904121546 | 76 | 134 | 0.0 | 2.6 | 0.00 | 0.28 | 0.00 | 93 | 1013.7 |
| 20260904120045 | 76 | 217 | 0.0 | 1.7 | 0.00 | 0.28 | 0.00 | 93 | 1013.6 |
| 20260904114547 | 75 | 110 | 0.0 | 1.7 | 0.00 | 0.28 | 0.00 | 93 | 1013.6 |
| 20260904113042 | 75 | 120 | 0.0 | 3.5 | 0.00 | 0.28 | 0.00 | 92 | 1013.4 |
| 20260904111543 | 75 | 259 | 0.0 | 1.7 | 0.00 | 0.28 | 0.00 | 92 | 1013.3 |
| 20260904110040 | 75 | 149 | 0.0 | 1.7 | 0.00 | 0.28 | 0.00 | 92 | 1013.3 |
| 20260904104540 | 75 | 118 | 0.0 | 1.7 | 0.00 | 0.28 | 0.00 | 91 | 1013.2 |
| 20260904103038 | 75 | 133 | 0.0 | 2.6 | 0.00 | 0.28 | 0.00 | 91 | 1013.1 |
| 20260904101536 | 75 | 167 | 0.0 | 0.9 | 0.00 | 0.28 | 0.00 | 90 | 1013.0 |
| 20260904100038 | 75 | 123 | 0.0 | 0.9 | 0.00 | 0.28 | 0.00 | 90 | 1013.0 |
| 20260904094541 | 75 | 124 | 0.0 | 0.9 | 0.00 | 0.28 | 0.00 | 89 | 1012.9 |
| 20260904093033 | 76 | 110 | 0.0 | 1.7 | 0.00 | 0.28 | 0.00 | 90 | 1012.9 |
| 20260904091532 | 76 | 172 | 0.0 | 1.7 | 0.00 | 0.28 | 0.00 | 89 | 1012.9 |
| 20260904090030 | 76 | 153 | 0.0 | 2.6 | 0.00 | 0.28 | 0.00 | 89 | 1012.9 |
| 20260904084531 | 76 | 141 | 0.9 | 2.6 | 0.00 | 0.31 | 0.00 | 88 | 1012.8 |
| 20260904083040 | 76 | 106 | 0.0 | 2.6 | 0.00 | 0.31 | 0.00 | 88 | 1012.8 |
| 20260904081527 | 76 | 125 | 0.0 | 1.7 | 0.00 | 0.31 | 0.00 | 87 | 1012.9 |
| 20260904080027 | 76 | 134 | 0.0 | 1.7 | 0.00 | 0.31 | 0.00 | 86 | 1012.9 |
| 20260904074526 | 77 | 104 | 0.0 | 0.9 | 0.00 | 0.31 | 0.00 | 85 | 1012.8 |
| 20260904073026 | 77 | 181 | 0.0 | 1.7 | 0.00 | 0.31 | 0.00 | 85 | 1012.9 |
| 20260904071524 | 77 | 123 | 0.0 | 2.6 | 0.00 | 0.31 | 0.00 | 85 | 1012.8 |
| 20260904070023 | 77 | 107 | 0.0 | 2.6 | 0.00 | 0.31 | 0.00 | 84 | 1012.9 |
| 20260904064522 | 77 | 155 | 0.0 | 2.6 | 0.00 | 0.31 | 0.00 | 83 | 1013.0 |
| 20260904063025 | 77 | 119 | 0.0 | 1.7 | 0.00 | 0.31 | 0.00 | 82 | 1013.0 |
| 20260904061519 | 77 | 153 | 0.0 | 2.6 | 0.00 | 0.31 | 0.00 | 82 | 1012.9 |
| 20260904060018 | 78 | 124 | 0.0 | 4.3 | 0.00 | 0.31 | 0.00 | 81 | 1013.1 |
| 20260904054517 | 78 | 212 | 0.9 | 3.5 | 0.00 | 0.31 | 0.00 | 80 | 1013.0 |
| 20260904053019 | 78 | 155 | 0.0 | 2.6 | 0.00 | 0.31 | 0.00 | 79 | 1012.9 |
| 20260904051517 | 78 | 105 | 0.0 | 2.6 | 0.00 | 0.31 | 0.00 | 79 | 1012.9 |
| 20260904050012 | 78 | 224 | 0.0 | 2.6 | 0.00 | 0.31 | 0.00 | 78 | 1012.9 |
| 20260904044518 | 79 | 91 | 0.0 | 1.7 | 0.00 | 0.31 | 0.31 | 77 | 1013.0 |
| 20260904043013 | 79 | 145 | 0.0 | 2.6 | 0.00 | 0.31 | 0.31 | 77 | 1013.0 |
| 20260904041511 | 79 | 146 | 0.0 | 2.6 | 0.00 | 0.31 | 0.31 | 76 | 1013.0 |
| 20260904040010 | 79 | 122 | 0.0 | 2.6 | 0.00 | 0.31 | 0.31 | 76 | 1013.2 |
| 20260904034513 | 80 | 214 | 0.0 | 2.6 | 0.00 | 0.31 | 0.31 | 76 | 1013.1 |
| 20260904033007 | 80 | 127 | 0.0 | 2.6 | 0.00 | 0.31 | 0.31 | 76 | 1013.2 |
| 20260904031507 | 80 | 134 | 0.9 | 4.3 | 0.00 | 0.31 | 0.31 | 76 | 1013.2 |
| 20260904030007 | 81 | 119 | 0.9 | 2.6 | 0.00 | 0.31 | 0.31 | 78 | 1013.1 |
| 20260904024512 | 81 | 237 | 0.0 | 2.6 | 0.00 | 0.31 | 0.31 | 77 | 1012.9 |
| 20260904023006 | 82 | 120 | 0.9 | 3.5 | 0.00 | 0.31 | 0.31 | 76 | 1012.7 |
| 20260904021509 | 82 | 108 | 0.0 | 3.5 | 0.00 | 0.31 | 0.31 | 76 | 1012.4 |
| 20260904020005 | 83 | 124 | 0.9 | 3.5 | 0.00 | 0.31 | 0.31 | 76 | 1012.2 |
| 20260904014505 | 83 | 135 | 0.0 | 3.5 | 0.00 | 0.31 | 0.31 | 75 | 1012.1 |
| 20260904013004 | 84 | 108 | 0.0 | 2.6 | 0.00 | 0.31 | 0.31 | 74 | 1011.8 |
| 20260904011503 | 84 | 112 | 0.9 | 3.5 | 0.00 | 0.31 | 0.31 | 73 | 1011.6 |
| 20260904010003 | 85 | 203 | 0.0 | 4.3 | 0.00 | 0.31 | 0.31 | 74 | 1011.5 |
| 20260904004503 | 85 | 282 | 0.9 | 4.3 | 0.00 | 0.31 | 0.31 | 72 | 1011.5 |
| 20260904003002 | 86 | 46 | 0.9 | 5.2 | 0.00 | 0.31 | 0.31 | 71 | 1011.4 |
| 20260904001502 | 86 | 148 | 1.7 | 7.8 | 0.00 | 0.31 | 0.31 | 70 | 1011.4 |
| 20260904000001 | 87 | 239 | 1.7 | 8.7 | 0.00 | 0.31 | 0.31 | 68 | 1011.4 |
| 20260903234601 | 87 | 153 | 1.7 | 5.2 | 0.00 | 0.31 | 0.31 | 66 | 1011.3 |
| 20260903233102 | 88 | 124 | 1.7 | 5.2 | 0.00 | 0.31 | 0.31 | 64 | 1011.2 |
| 20260903231558 | 89 | 139 | 0.9 | 7.0 | 0.00 | 0.31 | 0.31 | 64 | 1011.0 |
| 20260903230057 | 90 | 95 | 1.7 | 6.1 | 0.00 | 0.31 | 0.31 | 63 | 1011.1 |
| 20260903224614 | 90 | 145 | 2.6 | 7.0 | 0.00 | 0.31 | 0.31 | 62 | 1011.0 |
| 20260903223057 | 90 | 220 | 2.6 | 6.1 | 0.00 | 0.31 | 0.31 | 63 | 1011.1 |
| 20260903221556 | 91 | 129 | 1.7 | 7.0 | 0.00 | 0.31 | 0.31 | 63 | 1011.1 |
| 20260903220052 | 90 | 169 | 2.6 | 7.0 | 0.00 | 0.31 | 0.31 | 64 | 1011.1 |
| 20260903214608 | 91 | 148 | 0.9 | 6.1 | 0.00 | 0.31 | 0.31 | 64 | 1011.3 |
| 20260903213059 | 90 | 288 | 1.7 | 6.1 | 0.00 | 0.31 | 0.31 | 65 | 1011.4 |
| 20260903211547 | 90 | 128 | 1.7 | 7.8 | 0.00 | 0.31 | 0.31 | 66 | 1011.7 |
| 20260903210120 | 90 | 147 | 0.9 | 5.2 | 0.00 | 0.31 | 0.31 | 66 | 1011.7 |
| 20260903204550 | 90 | 259 | 1.7 | 5.2 | 0.00 | 0.31 | 0.31 | 66 | 1011.9 |
| 20260903203103 | 89 | 258 | 1.7 | 7.0 | 0.00 | 0.31 | 0.31 | 68 | 1012.2 |
| 20260903201544 | 88 | 208 | 0.9 | 5.2 | 0.00 | 0.31 | 0.31 | 70 | 1012.4 |
| 20260903200047 | 88 | 139 | 1.7 | 6.1 | 0.00 | 0.31 | 0.31 | 70 | 1012.4 |
| 20260903194538 | 88 | 127 | 1.7 | 7.8 | 0.00 | 0.31 | 0.31 | 70 | 1012.4 |
| 20260903193034 | 87 | 221 | 1.7 | 7.0 | 0.00 | 0.31 | 0.31 | 71 | 1012.6 |
| 20260903191535 | 85 | 101 | 2.6 | 6.1 | 0.00 | 0.31 | 0.31 | 73 | 1012.9 |
| 20260903190032 | 84 | 84 | 1.7 | 6.1 | 0.00 | 0.31 | 0.31 | 76 | 1013.4 |
| 20260903184529 | 84 | 97 | 2.6 | 7.8 | 0.00 | 0.31 | 0.31 | 75 | 1013.6 |
| 20260903183028 | 85 | 84 | 2.6 | 9.6 | 0.00 | 0.31 | 0.31 | 75 | 1013.6 |
| 20260903181525 | 84 | 179 | 3.5 | 10.4 | 0.00 | 0.31 | 0.31 | 77 | 1013.7 |
| 20260903180026 | 83 | 117 | 3.5 | 9.6 | 0.00 | 0.31 | 0.31 | 78 | 1013.9 |
| 20260903174521 | 82 | 113 | 2.6 | 7.8 | 0.00 | 0.31 | 0.31 | 80 | 1014.0 |
| 20260903173017 | 80 | 94 | 2.6 | 7.8 | 0.00 | 0.31 | 0.31 | 84 | 1014.1 |
| 20260903171515 | 80 | 94 | 1.7 | 10.4 | 0.00 | 0.31 | 0.31 | 84 | 1014.3 |
| 20260903170014 | 80 | 155 | 0.9 | 7.0 | 0.00 | 0.31 | 0.31 | 86 | 1014.2 |
| 20260903164515 | 79 | 150 | 1.7 | 7.0 | 0.00 | 0.31 | 0.31 | 88 | 1014.2 |
| 20260903163013 | 78 | 261 | 1.7 | 6.1 | 0.00 | 0.31 | 0.31 | 88 | 1014.2 |
| 20260903161513 | 78 | 112 | 0.9 | 7.8 | 0.00 | 0.31 | 0.31 | 90 | 1014.0 |
| 20260903160016 | 78 | 175 | 1.7 | 6.1 | 0.00 | 0.31 | 0.31 | 90 | 1014.0 |
| 20260903154511 | 78 | 143 | 1.7 | 7.8 | 0.00 | 0.31 | 0.31 | 91 | 1013.9 |
| 20260903153014 | 78 | 103 | 1.7 | 7.0 | 0.00 | 0.31 | 0.31 | 91 | 1013.7 |
| 20260903151509 | 77 | 213 | 2.6 | 7.0 | 0.00 | 0.31 | 0.31 | 93 | 1013.6 |
| 20260903150009 | 77 | 314 | 0.9 | 5.2 | 0.00 | 0.31 | 0.31 | 94 | 1013.7 |
| 20260903144508 | 77 | 160 | 1.7 | 6.1 | 0.00 | 0.31 | 0.31 | 95 | 1013.6 |